Regional Weather Roundup
Issued by NWS

Home | Current Version | Previous Version | Text Only | Print | Product List | Glossary On
Versions: 1 2 3 4 5 6 7 8 9 10 11 12 13 14 15 16 17 18 19 20 21 22 23 24 25 26 27 28 29 30 31 32 33 34 35 36 37 38 39 40 41 42 43 44 45 46 47 48 49 50
000
ASUS45 KBOU 302310
RWRCO

WEATHER ROUNDUP FOR COLORADO
NATIONAL WEATHER SERVICE DENVER/BOULDER CO
500 PM MDT TUE JUN 30 2015

NOTE: "FAIR" INDICATES FEW OR NO CLOUDS BELOW 12000 FEET WITH NO
SIGNIFICANT WEATHER AND/OR OBSTRUCTIONS TO VISIBILITY.

COZ001>005-013-030-031-010000-
...NORTHWEST COLORADO...

CITY           SKY/WX    TMP DP  RH WIND       PRES   REMARKS
CRAIG          PTSUNNY   91  40  16 CALM      30.12F
HAYDEN         PTSUNNY   82  43  24 S5        30.16F
MEEKER         PTSUNNY   88  44  21 N15       30.15S
MOUNT WERNER   NOT AVBL
STEAMBOAT SPGS PTSUNNY   81  44  27 W3        30.19R
WALDEN         CLOUDY    64  54  68 NE10      30.32R
$$

COZ006>008-011-010000-
...WEST CENTRAL VALLEYS...

CITY           SKY/WX    TMP DP  RH WIND       PRES   REMARKS
GRAND JUNCTION MOSUNNY  101  40  12 W9        29.97F
MONTROSE       SUNNY     97  43  15 VRB6      30.08F
EAGLE          MOSUNNY   90  41  18 SE9       30.14F
RIFLE          PTSUNNY   96  37  12 N12       30.03F
DELTA          SUNNY    104  35   9 W7G18     30.00F
NUCLA          SUNNY     97  36  11 SW5       30.12F
$$

COZ017>023-064>068-010000-
...SOUTHWEST COLORADO...

CITY           SKY/WX    TMP DP  RH WIND       PRES   REMARKS
DURANGO        SUNNY     90  45  21 MISG      30.16F
CORTEZ         SUNNY     95  45  17 VRB6      30.09F
PAGOSA SPRINGS SUNNY     87  35  15 S8        30.25F
TELLURIDE      SUNNY     82  34  18 NW5       30.41F
WOLF CREEK PAS NOT AVBL
$$

COZ009-010-012-014-032>034-037-058>063-010000-
...CENTRAL COLORADO...

CITY           SKY/WX    TMP DP  RH WIND       PRES   REMARKS
ASPEN          PTSUNNY   85  42  22 NW12      30.25F
BUENA VISTA    PTSUNNY   88  33  14 NE10      30.24F
COPPER MTN     PTSUNNY   73  30  20 W17G30    30.66F
BERTHOUD PASS  FAIR      59  48  67 NW17G25   30.73R
COTTONWOOD PAS NOT AVBL
GUNNISON       MOSUNNY   86  37  17 SW6       30.25F
KREMMLING      MOSUNNY   90  27  10 NW10      30.22F
LEADVILLE      PTSUNNY   73  33  23 NW7G18    30.45F
MONARCH PASS   LGT RAIN  59  41  51 S5        30.76F
SALIDA         PTSUNNY   79  47  33 W16G23    30.29S
SUNLIGHT       MOSUNNY   73  37  27 NW8       30.58F
WILKERSON PASS MOSUNNY   66  32  28 NE3       30.61F
$$

COZ069>075-010000-
...SAN LUIS VALLEY/SANGRE DE CRISTO MOUNTAINS...

CITY           SKY/WX    TMP DP  RH WIND       PRES   REMARKS
ALAMOSA        SUNNY     86  42  21 S10       30.23F
LA VETA PASS   MOSUNNY   68  41  37 MISG      30.50F
SAGUACHE       PTSUNNY   82  45  26 SW7       30.27F
$$

COZ035-036-038>040-010000-
...NORTHERN COLORADO FRONT RANGE...

CITY           SKY/WX    TMP DP  RH WIND       PRES   REMARKS
DENVER INTL AP PTSUNNY   91  45  20 N10       30.07R
DMNS CITY PARK   N/A     89  41  18 N8G14     30.07R
AURORA         PTSUNNY   90  46  21 CALM      30.10S
FRONT RANGE AP PTSUNNY   91  46  21 CALM      30.08F
ERIE MUNI ARPT PTSUNNY   80  44  27 NW7G33    30.09R
BOULDER MUN AP PTSUNNY   77  52  41 W15       30.11R THUNDER
CENTENNIAL     PTSUNNY   88  42  20 NE3       30.10F
BROOMFIELD     PTSUNNY   88  45  22 NW26G37   30.13R THUNDER
FORT COLLINS   CLOUDY    79  55  44 NW13      30.07F
LONGMONT       LGT RAIN  83  48  30 S3        30.07F
$$

COZ041-046-047-076>085-087-088-010000-
...PIKES PEAK/PALMER DIVIDE AND SOUTHERN FOOTHILLS...

CITY           SKY/WX    TMP DP  RH WIND       PRES   REMARKS
COLO. SPRINGS  MOSUNNY   86  48  26 S8        30.15F
A. F. ACADEMY  SUNNY     87  47  25 S9        30.16F
ELLICOTT       SUNNY      1  32 100 CALM      30.13F
FALCON         SUNNY     86  45  23 CALM      30.21F
FORT CARSON    SUNNY     87  51  29 S5        30.12F
LIMON          SUNNY     86  53  32 S7        30.08F
MONUMENT HILL  SUNNY     82  45  26 E6        30.22F
TRINIDAD       SUNNY     91  48  22 VRB7      30.10F
$$

COZ042>045-048>051-090-091-010000-
...NORTHEAST COLORADO...

CITY           SKY/WX    TMP DP  RH WIND       PRES   REMARKS
GREELEY ARPT   PTSUNNY   90  52  27 W20G25    30.04S
AKRON          MOSUNNY   93  46  19 N6        30.01S
BURLINGTON     SUNNY     94  46  19 VRB6      29.98F
WRAY           PTSUNNY   96  48  19 S3        29.92F
STERLING       MOSUNNY   93  45  18 S9          N/A
HOLYOKE        PTSUNNY   99  55  23 SW3       29.92F
FORT MORGAN    MOSUNNY   87  55  33 CALM      30.00F
$$

COZ086-089-092>099-010000-
...SOUTHEAST COLORADO...

CITY           SKY/WX    TMP DP  RH WIND       PRES   REMARKS
PUEBLO         SUNNY     98  42  14 S9        30.00F
LA JUNTA       SUNNY     96  44  16 CALM      29.98F
LAMAR          SUNNY     97  45  16 MISG      29.93F
SPRINGFIELD      N/A     93  42  17 S8        30.02F
$$



USA.gov is the U.S. government's official web portal to all federal, state and local government web resources and services.